JA6YCL-13 Weather Reports


time (UTC)temp
C
wind
direction
speed
KPH
gust
KPH
rain 1hr
cm
rain 24hr
cm
rain mn
cm
humidity
%
barometer
mb
20260504080736 18 308 4.8 12.9 0.00 0.84 0.00 26 1013.7
20260504070338 20 269 6.4 17.7 0.00 0.89 0.00 23 1013.0
20260504025311 20 250 11.3 30.6 0.00 1.09 0.00 36 1011.7
20260504024026 20 244 11.3 33.8 0.00 1.09 0.00 38 1011.7
20260504022548 20 233 12.9 30.6 0.00 1.09 0.00 39 1011.9
20260504021151 18 245 12.9 37.0 0.00 1.09 0.00 42 1011.9
20260504015815 19 239 12.9 40.2 0.00 1.09 0.00 41 1011.9
20260504014443 19 239 12.9 29.0 0.00 1.09 0.00 42 1011.8
20260504013021 18 248 14.5 38.6 0.00 1.09 0.00 45 1011.9
20260504011704 18 234 12.9 40.2 0.00 1.09 0.00 45 1012.0
20260504010415 18 257 14.5 33.8 0.00 1.09 0.00 44 1011.6
20260504005204 18 245 14.5 38.6 0.00 1.09 0.00 46 1011.7
20260504003849 18 239 16.1 33.8 0.00 1.09 0.00 46 1011.7
20260504002401 18 244 19.3 35.4 0.00 1.09 0.00 49 1011.5
20260504001023 18 261 9.7 33.8 0.00 1.09 0.00 50 1011.3
20260503235745 18 238 12.9 29.0 0.00 1.09 0.00 50 1011.1
20260503234429 18 234 12.9 33.8 0.00 1.09 0.00 49 1010.9
20260503232931 17 255 11.3 27.4 0.00 1.09 0.00 52 1010.6
20260503231529 17 252 11.3 35.4 0.00 1.09 0.00 52 1010.5
20260503230250 17 270 9.7 24.1 0.00 1.09 0.00 55 1010.5
20260503224805 17 227 8.0 17.7 0.00 1.09 0.00 58 1010.3
20260503223436 16 242 6.4 16.1 0.00 1.09 0.00 60 1009.9
20260503222216 16 270 8.0 17.7 0.00 1.09 0.00 61 1009.8
20260503220716 16 243 4.8 12.9 0.00 1.09 0.00 64 1009.5
20260503215436 16 240 4.8 6.4 0.00 1.09 0.00 64 1009.3
20260503214006 16 251 4.8 11.3 0.00 1.09 0.00 67 1009.2
20260503212610 15 248 3.2 6.4 0.00 1.09 0.00 68 1009.0
20260503211236 15 248 3.2 6.4 0.00 1.09 0.00 69 1008.8
20260503205816 15 239 4.8 11.3 0.00 1.09 0.00 70 1008.5
20260503204619 15 254 6.4 12.9 0.00 1.09 0.00 71 1008.4
20260503203156 15 262 6.4 12.9 0.00 1.09 0.00 72 1008.0
20260503201831 15 243 8.0 20.9 0.00 1.09 0.00 71 1008.1
20260503200546 15 253 8.0 17.7 0.00 1.09 0.00 72 1008.1
20260503195206 15 251 6.4 16.1 0.00 1.09 0.00 72 1007.6
20260503193740 15 258 4.8 12.9 0.00 1.09 0.00 71 1007.3
20260503192536 15 251 4.8 20.9 0.00 1.09 0.00 71 1007.7
20260503191326 15 243 9.7 22.5 0.00 1.09 0.00 70 1007.4
20260503190002 15 247 4.8 12.9 0.00 1.09 0.00 70 1007.4
20260503184606 15 233 6.4 22.5 0.00 1.09 0.00 70 1007.5
20260503183106 15 246 6.4 24.1 0.00 1.09 0.00 70 1007.4
20260503181726 15 259 8.0 22.5 0.00 1.09 0.00 71 1007.3
20260503180332 15 260 9.7 17.7 0.00 1.09 0.00 71 1007.1
20260503175041 15 256 4.8 16.1 0.00 1.09 0.00 72 1007.1
20260503173751 15 254 8.0 14.5 0.00 1.09 0.00 73 1007.2
20260503172429 15 257 6.4 22.5 0.00 1.09 0.00 73 1007.0
20260503171140 15 255 8.0 22.5 0.00 1.09 0.00 74 1007.0